Content
SEND FEEDBACK

Daily
Averages
Monthly
Summary
United Kingdom

LONDON, ENGLAND


Home > Europe > United Kingdom > England
Elevation: 203 feet     Latitude: 51 09N     Longitude: 000 11W

WEATHER
 
SELECT A DAY
Number of Records: 294,488;   Date Range: 7/1/96 - 9/16/14
 
SHARE

PRINT THIS DATA

[ ← Previous Day ]
WEATHER ALMANAC - SEPTEMBER 15, 2013
[ Next Day → ]
[ °C ]   °F
Weather ElementAverageHighLow
Temperature53.4 °F60.8 °F (11:20 am)42.8 °F (3:50 am)
Dewpoint49.5 °F59 °F (8:20 pm)42.8 °F (2:20 am)
Humidity87.5 %100 % (12:50 am)63 % (11:50 am)
Barometer29.83 in30.06 in (12:50 am)29.59 in (7:20 pm)
Wind Speed9.5 mph17.3 mph (6:50 pm)
Wind Gust32.2 mph (6:50 pm)
Weather ElementAverage
Visibility5.1 mi
Wind DirectionSSW (200 °)

Weather ElementTotal
Precipitation---
Heating Degree Days13.2 (Base 65)
Growing Degree Days1.8 (Base 50)
Averaged from 46 records on September 15, 2013
WEATHER CONDITIONS BREAKOUT
WIND DIRECTION BREAKOUT
WEATHER BY HOUR - SEPTEMBER 15, 2013
[ °C ]   °F
Local TimeTemperatureDewpointHumidityBarometerVisibilityWind DirectionWind SpeedGust SpeedPrecipitationEventsConditions
12:50 AM46.4 °F46.4 °F100 %30.06 in5.0 miCalm
1:20 AM48.2 °F46.4 °F93 %30.06 in5.0 miVariable3.5 mph
1:50 AM44.6 °F44.6 °F100 %30.06 in4.3 miSSW (200°)3.5 mph
2:20 AM44.6 °F42.8 °F93 %30.06 in5.0 miSSW (200°)2.3 mph
2:50 AM44.6 °F44.6 °F100 %30.04 in5.6 miSSW (200°)2.3 mph
3:20 AM44.6 °F42.8 °F93 %30.04 in5.6 miSouth (180°)2.3 mph
3:50 AM42.8 °F42.8 °F100 %30.04 in5.6 miSW (220°)2.3 mph
4:20 AM44.6 °F42.8 °F93 %30.04 in5.0 miVariable2.3 mph
4:50 AM44.6 °F42.8 °F93 %30.01 in5.0 miSouth (190°)2.3 mph
5:20 AM44.6 °F42.8 °F93 %30.01 in3.7 miCalm
5:50 AM44.6 °F42.8 °F93 %30.01 in3.1 miSSW (210°)2.3 mphMist
6:50 AM42.8 °F42.8 °F100 %29.98 in3.7 miSSW (210°)2.3 mph
7:20 AM42.8 °F42.8 °F100 %29.98 in2.5 miSSE (160°)2.3 mphMist
7:50 AM46.4 °F44.6 °F93 %29.98 in3.7 miCalm
8:20 AM48.2 °F46.4 °F93 %29.98 in4.3 miSW (220°)3.5 mph
8:50 AM50.0 °F48.2 °F94 %29.95 in5.6 miSW (230°)5.8 mph
9:20 AM53.6 °F48.2 °F82 %29.95 inSW (230°)8.1 mphClear
9:50 AM55.4 °F48.2 °F77 %29.95 inSW (230°)8.1 mphClear
10:20 AM57.2 °F50.0 °F77 %29.92 in6.2 miSW (220°)10.4 mphPartly Cloudy
10:50 AM59.0 °F50.0 °F72 %29.92 in6.2 miSW (230°)13.8 mphScattered Clouds
11:20 AM60.8 °F50.0 °F68 %29.89 in6.2 miWSW (240°)15.0 mphPartly Cloudy
11:50 AM59.0 °F46.4 °F63 %29.89 in6.2 miWSW (240°)13.8 mphPartly Cloudy
12:20 PM59.0 °F48.2 °F67 %29.86 in6.2 miWSW (240°)15.0 mphPartly Cloudy
12:50 PM57.2 °F48.2 °F72 %29.83 in6.2 miSW (220°)12.7 mphPartly Cloudy
1:20 PM57.2 °F46.4 °F67 %29.83 in6.2 miSW (220°)11.5 mphPartly Cloudy
1:50 PM59.0 °F48.2 °F67 %29.80 in6.2 miSW (220°)13.8 mphScattered Clouds
2:20 PM57.2 °F48.2 °F72 %29.80 in6.2 miSW (220°)13.8 mphRainLight Rain
2:50 PM57.2 °F50.0 °F77 %29.77 in6.2 miSW (220°)13.8 mphMostly Cloudy
3:20 PM59.0 °F50.0 °F72 %29.74 in6.2 miSW (220°)15.0 mphMostly Cloudy
3:50 PM55.4 °F53.6 °F94 %29.71 in6.2 miSSW (210°)15.0 mphRainLight Rain
4:20 PM57.2 °F53.6 °F88 %29.68 in5.6 miSW (220°)13.8 mphRainLight Rain
4:50 PM57.2 °F53.6 °F88 %29.68 in6.2 miSW (220°)15.0 mphRainLight Rain
5:20 PM57.2 °F55.4 °F94 %29.65 in3.1 miSW (220°)15.0 mph28.8 mphLight Drizzle
5:50 PM57.2 °F55.4 °F94 %29.65 inSW (220°)16.1 mphRainRain
6:20 PM57.2 °F57.2 °F100 %29.62 in6.2 miSW (220°)13.8 mphRainLight Rain
6:50 PM59.0 °F57.2 °F94 %29.62 in1.7 miSW (230°)17.3 mph32.2 mphRainLight Rain
7:20 PM59.0 °F57.2 °F94 %29.59 in1.2 miSW (220°)15.0 mph26.5 mphRainRain
7:50 PM59.0 °F57.2 °F94 %29.59 in6.2 miSW (230°)13.8 mphRainLight Rain
8:20 PM60.8 °F59.0 °F94 %29.59 in6.2 miSW (230°)11.5 mphMostly Cloudy
8:50 PM60.8 °F59.0 °F94 %29.59 in2.2 miSW (230°)10.4 mphRainRain
9:20 PM60.8 °F59.0 °F94 %29.59 in6.2 miWSW (250°)11.5 mphMostly Cloudy
9:50 PM59.0 °F55.4 °F88 %29.59 in6.2 miWest (270°)13.8 mphScattered Clouds
10:20 PM57.2 °F55.4 °F94 %29.59 in6.2 miWest (260°)11.5 mphPartly Cloudy
10:50 PM55.4 °F51.8 °F88 %29.59 in6.2 miWest (270°)13.8 mphPartly Cloudy
11:20 PM55.4 °F50.0 °F82 %29.62 inWest (260°)12.7 mphClear
11:50 PM53.6 °F50.0 °F88 %29.62 inWest (270°)13.8 mphClear
Hourly data recorded from EGKK, located miles away from London, England







STORIES FROM OUR PARTNERS